Back to catalog

BLOCK DM-SL R/B

AliveHEO
NORAD 33377·ROCKET BODY· XX

Launched Sep 24, 2008 from Sea Launch Platform

Loading…

Next Passes (next 24 hours)

TLE

FreshSource: Space-Track

Epoch: Sep 14, 2026, 07:50 UTC

1 33377U 08045B   26257.32687497 -.00000157  00000-0  00000-0 0  9992
2 33377   0.9349  64.3396 6418468  77.0624 289.1079  2.12855347139808

Track BLOCK DM-SL R/B in real time with AllMySat

Download on the App Store